STARLINK-1090, 44968

Orbit data source: Space-Track

STARLINK-1090, 44968 is a payload satellite owned by SpaceX/Seattle (US) in LEO that was launched on Tue, 07 Jan 2020 UTC via an FALCON 9 launch vehicle from the Air Force Eastern Test Range (AFETR). Payload-class satellites include a variety of spacecraft equipped with specific instruments for various scientific and technological missions. These include communications satellites like Starlink; space stations such as the ISS; scientific satellites like the Hubble; Earth observation satellites from companies like Planet Labs, Umbra, and HawkEye 360; GPS; miniature CubeSats for education and research; and military/defense satellites.

Loading next visibility...
Identifier
44968, 2020-001BG
Orbit
LEO
Country
Flag of USUS
Related business
Manufacturer
SpaceX/Seattle
Mission
Partially operational Commercial Communications
Bus & Motor
STARLINK, Unknown motor
Mass
260 kg wet, ~248 kg dry
Launch date (UTC)
2020-01-07 (6 years ago)
Launch vehicle
FALCON 9
Launch site
Air Force Eastern Test Range (AFETR)
Object type
Payload
Rocket body
Debris
Shape & HBR
Box + 1 Pan, 10.1 m
Radar Cross Section
13.562 m², Large (>1 m²)

Expand to show TLE details & history
Last TLE update: 2 days ago

TLE from 2 days ago
0 STARLINK-1090
1 44968U 20001BG  26171.42326161  .00049043  00000-0  80439-3 0  9993
2 44968  53.1480 181.4132 0005952  22.6758 337.4514 15.51967295356253
Epoch: 2026-06-20T10:09Z
TLE epoch observation values (Epoch: 2026-06-20T10:09:29.803Z)
Latitude
Longitude
120.40092°
Altitude
408.158 km
Speed
7.669 km/s
True Right ascension
12h 05m 39s
True Declination
0° 00' 00"
Sunlit
Object was in daylight at epoch
Visualization orbit readout
Latitude
Unknown
Longitude
Unknown
Altitude
Unknown
Speed
Unknown
Apparent Right ascension
Unknown
Apparent Declination
Unknown
Sunlit
N/A
Visualization observer readout
Local Sidereal Time
23:18:48
Azimuth
Unknown
Elevation
Unknown
Doppler factor
Unknown
Orbital elements
Apogee altitude
415.284 km
Perigee altitude
407.202 km
Semi-major axis
6,789.38 km
Eccentricity
0.0006
Inclination
53.148°
RAAN
181.4132°
Arg. of periapsis
22.6758°
True anomaly
337.42523°
Mean anomaly
337.4514°
Eccentric anomaly
337.43832°
Mean motion
3.8797 °/min
Orbital period
92.79 mins
BSTAR
0.00080439
Loading maneuver chart data...
Computing Atmospheric mass density...

Documentation

Showing up to 5 results
|